Regional Weather Roundup
Issued by NWS Goodland, KS

Home | Current Version | Previous Version | Graphics & Text | Print | Product List | Glossary On
Versions: 1 2 3 4 5 6 7 8 9 10 11 12 13 14 15 16 17 18 19 20 21 22 23 24 25 26 27 28 29 30 31 32 33 34 35 36 37 38 39 40 41 42 43 44 45 46 47 48 49 50
000
ASUS43 KGLD 141559
RWRGLD

GOODLAND FORECAST AREA HOURLY WEATHER ROUNDUP
NATIONAL WEATHER SERVICE GOODLAND KS
1000 AM MDT SUN SEP 14 2014

...OFFICIAL OBSERVATIONS...

CITY           SKY/WX    TMP DP  RH WIND       PRES   REMARKS
GOODLAND KS    CLOUDY    52  52 100 E6        30.13S FOG
HILL CITY KS   SUNNY     61  50  67 S6        30.15S
IMPERIAL NEB   SUNNY     55  48  77 SE6       30.13S
MCCOOK NEB     SUNNY     57  48  72 VRB3      30.15S
AKRON CO       SUNNY     64  49  57 W5        30.11S
BURLINGTON CO  MOSUNNY   66  54  65 VRB7      30.10S
LIMON CO       SUNNY     72  41  32 W6        30.15S
$$

...UNOFFICIAL OBSERVATIONS...

CITY           SKY/WX    TMP DP  RH WIND       PRES   REMARKS
COLBY KS       MOSUNNY   55  55 100 SE6       30.14S
NORTON KS      SUNNY     59  45  58 E8        30.14S
SHARON SPRINGS   N/A     51  50  97 CALM        N/A
WAKEENEY KS      N/A     61  49  63 MISG        N/A
TRENTON NEB      N/A     56  32  40 SE7         N/A
KIT CARSON CO    N/A     53  51  92 CALM        N/A
YUMA CO          N/A     52  52 100 E5          N/A
$$



USA.gov is the U.S. government's official web portal to all federal, state and local government web resources and services.